Regional Weather Roundup
Issued by NWS

Home | Current Version | Previous Version | Graphics & Text | Print | Product List | Glossary On
Versions: 1 2 3 4 5 6 7 8 9 10 11 12 13 14 15 16 17 18 19 20 21 22 23 24 25 26 27
000
ASUS45 KCYS 050110
RWRWY

WYOMING REGIONAL WEATHER ROUNDUP
NATIONAL WEATHER SERVICE CHEYENNE WY
700 PM MDT WED MAY 04 2016

NOTE:  "FAIR" INDICATES FEW OR NO CLOUDS BELOW 12,000 FEET
WITH NO SIGNIFICANT WEATHER AND/OR OBSTRUCTIONS TO VISIBILITY.

WYZ001-050200-
YELLOWSTONE NATIONAL PARK

CITY           SKY/WX    TMP DP  RH WIND       PRES   REMARKS
LK YELLOWSTONE   N/A     54  29  38 CALM      30.21F
W YELLOWSTONE  NOT AVBL

$$
WYZ002>013-054>058-071-098>099-050200-
NORTHERN WYOMING

CITY           SKY/WX    TMP DP  RH WIND       PRES   REMARKS
JACKSON        SUNNY     68  19  15 SW7       30.10F
CODY           FAIR      75  23  14 S9        30.00S
GREYBULL       FAIR      79  24  13 S7        29.93F
WORLAND        FAIR      69  42  37 S7        29.96F
SHERIDAN       FAIR      76  39  26 E6        29.96F
BUFFALO        FAIR      72  36  26 E7        30.02F
GILLETTE       FAIR      72  43  35 CALM      29.99F
HULETT         FAIR      73  41  31 S5        30.01F
NEWCASTLE      FAIR      73  32  21 SE12      30.03F

$$
WYZ014>020-022>026-101>103-050200-
CENTRAL WYOMING

CITY           SKY/WX    TMP DP  RH WIND       PRES   REMARKS
BIG PINEY      FAIR      67  24  19 SW7       30.14F
PINEDALE       FAIR      66  18  15 SW9       30.14F
DUBOIS         FAIR      64  18  16 W8        30.13S
LANDER         FAIR      68  29  23 SW12      30.02F
RIVERTON       FAIR      75  24  15 SE3       30.04F
CASPER         FAIR      74  25  16 CALM      30.06F
DOUGLAS        FAIR      71  38  29 S9        30.06F

$$
WYZ021-027>030-104>119-050200-
SOUTHERN WYOMING

CITY           SKY/WX    TMP DP  RH WIND       PRES   REMARKS
EVANSTON       FAIR      65  23  20 SW13      30.13S
KEMMERER         N/A     64  21  19 SE6       30.14F
FORT BRIDGER   CLEAR     70  21  16 S13       30.16S
ROCK SPRINGS   FAIR      65  23  20 S16       30.13S
DIXON          FAIR      70  25  18 CALM      30.18F
RAWLINS        FAIR      68  21  16 SW7       30.15F
SARATOGA       FAIR      64  19  17 W9        30.19F
LARAMIE        FAIR      65  24  21 NE3       30.19F
CHEYENNE       FAIR      66  33  29 S12       30.16S
TORRINGTON     FAIR      72  38  29 SE10      30.05F
PINE BLUFFS    FAIR      68  34  28 SE7       30.13S

$$




USA.gov is the U.S. government's official web portal to all federal, state and local government web resources and services.